Theta_e
346 344 346 348 343 343 345 348 349 351 349 351 352 349 346 343 345 343 344 348 354 356 356 354 346 351 349 347 350 350 347 344 345 347 347 347 347 347 345 340 340 341 342
348 349 348 347 344 343 343 342 346 348 349 351 353 353 350 350 348 348 348 347 347 347 352 350 350 348 352 351 346 352 351 346 346 346 347 347 348 346 345 342 341 340 342
349 350 352 353 351 349 348 348 346 346 345 345 350 353 353 351 350 351 346 344 344 343 344 347 351 348 348 346 347 346 347 349 348 347 347 347 344 345 345 343 342 343 342
351 353 354 355 355 356 357 356 356 357 357 355 353 347 349 355 352 348 346 346 346 344 346 350 347 347 348 349 350 349 349 348 348 348 345 344 345 343 344 343 341 339 339
358 358 359 358 358 359 360 359 360 359 360 359 357 357 355 351 351 350 347 347 342 335 338 341 347 343 345 343 343 347 349 340 342 346 348 344 345 344 345 342 340 339 341
358 357 356 359 358 360 359 359 359 358 360 357 356 356 353 352 344 347 348 344 342 340 343 340 339 342 339 343 345 346 348 348 348 343 340 339 344 342 342 341 339 337 339
361 359 358 357 356 356 356 355 356 356 355 353 352 351 352 350 349 346 343 342 341 343 344 346 346 345 345 344 345 346 349 347 347 343 344 341 340 339 341 340 338 338 337
357 357 358 357 357 355 354 354 352 351 352 350 349 348 348 345 344 344 345 346 346 343 340 339 341 343 345 347 347 346 347 347 344 342 345 339 336 336 343 342 340 339 336
353 352 352 351 350 349 349 348 346 348 348 346 345 344 341 340 343 345 345 345 345 342 338 343 346 347 346 344 342 344 341 346 344 342 343 340 339 344 345 341 339 340 336
349 344 341 339 345 347 342 340 340 340 341 341 340 342 343 344 342 343 342 341 342 341 341 340 345 346 346 347 344 342 342 342 348 348 346 346 346 346 343 341 340 337 336
338 339 339 344 349 343 334 337 342 342 344 344 343 343 344 340 340 340 339 338 341 341 342 341 343 345 344 345 343 341 342 342 344 343 345 344 343 343 341 338 336 334 336
346 337 337 347 348 340 340 343 343 343 344 343 342 341 340 340 339 335 335 338 341 342 342 343 341 341 341 341 341 340 341 341 343 344 343 343 341 339 337 334 333 334 337
340 339 339 334 334 342 340 339 342 342 343 343 342 341 341 340 336 334 336 338 341 341 342 340 341 341 339 340 339 338 338 338 339 340 341 340 339 336 334 335 336 336 336
341 337 340 340 336 338 338 340 341 341 337 335 335 333 333 332 334 332 334 337 339 340 340 340 338 339 338 337 337 338 338 337 338 340 339 338 334 332 331 331 334 334 333
345 344 345 345 343 341 342 343 343 343 342 341 339 336 332 331 332 329 328 330 336 338 337 340 340 340 339 338 338 337 337 336 337 337 338 336 335 335 333 332 331 330 330
349 348 348 344 341 342 343 343 344 343 343 342 341 337 332 331 330 328 332 335 331 333 340 342 340 340 340 340 338 337 337 336 334 335 335 334 333 333 331 328 329 329 327
346 347 348 344 342 343 342 343 343 342 344 341 341 334 332 331 330 329 333 336 337 338 338 333 339 340 340 340 338 337 338 336 335 333 332 332 330 329 327 322 324 326 321
348 349 344 342 342 344 341 340 340 342 341 340 340 340 331 330 330 328 338 336 338 339 338 336 335 333 336 336 337 337 337 335 334 333 334 330 329 327 326 319 317 318 317
339 342 345 343 345 344 340 343 345 340 340 340 341 341 334 329 329 334 339 340 339 339 339 337 338 335 335 336 335 334 335 336 334 335 334 330 328 326 324 321 318 318 320
343 342 336 344 344 344 342 342 341 339 339 339 340 341 340 338 331 337 338 341 340 339 338 334 336 334 335 335 334 332 334 334 336 334 332 329 327 325 323 321 319 321 320
346 345 343 336 340 343 340 341 339 339 338 339 342 341 341 340 338 334 334 341 340 340 338 338 338 337 333 334 336 334 335 332 332 332 330 329 327 325 324 324 324 319 322
346 344 342 342 343 341 340 339 338 338 340 339 339 341 340 340 338 339 340 341 341 340 339 339 338 336 335 334 333 334 333 332 332 331 330 329 327 325 325 328 322 321 323
342 340 338 337 343 340 340 337 340 341 339 337 339 340 340 339 338 339 340 339 339 336 340 336 337 335 335 334 331 333 334 334 333 331 330 330 330 327 327 326 323 325 324
329 337 331 336 336 338 334 336 338 337 338 338 339 340 340 339 338 338 336 335 337 339 338 336 337 334 334 334 331 333 332 332 333 331 331 331 330 329 328 325 325 324 323
325 331 331 332 335 339 339 339 337 337 336 338 335 335 334 335 335 338 337 337 336 335 333 337 337 335 335 333 331 332 332 330 331 329 328 329 329 328 326 326 324 322 322
330 330 331 336 337 338 337 337 337 336 334 335 334 333 334 333 333 335 334 335 335 332 332 333 334 333 332 331 331 330 331 331 330 329 327 327 326 326 324 323 322 323 322
Wind_Speed
13 15 14 12 13 14 16 16 17 17 19 16 14 10 10 11 14 15 13 13 16 17 21 21 19 19 20 20 19 19 17 17 15 11 18 17 16 13 9 11 14 16 17
20 15 12 13 14 16 16 18 19 19 23 22 19 18 15 18 16 16 13 13 16 20 22 21 23 24 26 25 25 25 21 19 20 19 19 18 17 15 12 9 13 14 17
24 20 16 15 15 16 16 15 16 17 18 23 27 24 23 20 19 17 20 18 19 20 20 22 25 27 29 32 30 28 27 26 24 25 25 22 19 19 17 12 12 12 14
23 22 19 16 15 15 14 15 15 18 19 18 20 24 25 22 21 21 22 20 19 21 21 24 25 26 29 32 33 32 28 24 26 31 31 26 25 21 18 14 12 15 16
16 15 18 14 13 16 19 19 21 21 24 24 23 24 24 23 16 13 22 24 22 20 21 28 28 30 31 32 33 35 33 27 33 30 32 26 25 25 25 18 13 15 21
8 11 12 11 18 17 16 18 24 21 17 18 18 25 25 16 28 23 28 25 18 21 22 24 31 26 31 28 35 33 33 31 26 24 35 33 24 29 14 20 15 17 22
7 8 11 11 15 18 21 21 25 23 23 26 26 24 22 18 9 11 19 21 20 19 22 24 27 30 28 29 31 31 29 28 23 23 22 23 24 25 15 18 19 21 24
1 2 3 5 7 11 9 9 12 12 13 14 13 12 14 15 14 13 14 14 14 16 18 19 21 25 23 23 24 26 25 20 20 19 20 20 15 10 24 21 18 20 17
5 4 2 1 0 3 4 5 5 7 8 8 9 10 11 13 13 12 14 11 12 13 13 10 11 12 16 18 21 24 22 20 20 19 20 21 17 17 20 16 19 23 20
3 1 0 3 4 3 4 6 6 8 8 9 9 9 11 10 11 12 12 15 18 19 17 13 14 11 14 18 20 20 16 15 15 13 12 13 17 17 14 16 16 20 19
6 5 5 6 6 9 8 8 10 12 9 11 13 12 10 14 12 13 16 18 20 18 15 12 14 11 14 17 18 18 15 12 9 8 10 12 16 13 18 21 17 15 21
4 5 7 6 5 8 12 12 13 12 12 13 10 9 11 15 17 20 16 14 13 13 8 8 9 11 14 15 15 12 11 7 8 9 6 6 10 10 12 15 16 16 17
4 5 5 6 5 7 9 11 10 9 8 6 10 11 13 16 20 16 14 14 12 11 8 6 8 9 8 4 5 7 8 7 6 6 5 1 5 5 12 15 15 14 18
1 3 6 9 8 6 9 10 12 13 10 9 11 9 10 12 13 15 14 15 15 12 15 13 15 11 12 8 7 8 8 9 3 3 5 0 10 10 12 7 10 11 16
0 1 1 2 3 4 8 11 12 12 10 9 10 10 8 8 13 12 13 13 13 13 12 12 11 12 12 12 11 10 9 10 6 3 6 12 13 15 11 9 10 12 14
4 1 5 4 4 5 7 9 10 14 13 9 8 10 6 5 10 9 13 14 14 12 13 11 9 9 8 7 8 9 8 9 8 7 9 10 11 12 10 12 13 14 11
5 3 3 4 2 4 7 8 11 14 9 6 5 12 5 1 4 6 14 14 15 17 20 13 9 8 8 7 7 10 7 6 3 2 4 7 9 12 9 11 13 12 11
4 5 3 6 4 3 11 9 5 8 11 11 8 9 8 0 3 8 14 15 13 13 16 15 15 10 8 7 7 6 5 5 5 4 4 8 10 8 8 12 11 10 9
4 8 3 4 4 6 9 9 9 6 10 9 9 8 10 4 3 6 12 11 12 11 14 15 15 12 7 7 7 7 5 4 2 5 7 10 10 8 8 11 12 9 12
5 2 2 9 9 8 10 5 2 10 4 6 7 7 7 12 5 5 9 9 5 7 14 16 14 13 9 9 10 7 4 3 4 3 4 7 9 9 8 10 12 11 15
5 5 4 2 3 4 5 4 7 10 6 5 6 10 11 12 12 9 7 10 7 9 11 14 17 16 10 8 9 9 7 4 2 4 6 8 9 10 10 10 11 16 15
5 4 7 7 6 5 8 9 7 8 6 6 7 8 4 4 7 5 7 7 9 6 13 13 13 13 14 12 8 8 7 5 2 3 5 9 11 11 11 10 14 13 11
11 11 7 12 13 10 7 5 5 6 7 8 8 11 8 8 14 6 9 6 9 12 7 13 8 10 12 15 12 4 6 6 3 3 6 8 10 12 13 12 15 12 14
11 11 3 5 5 8 11 8 3 4 9 9 11 10 4 7 9 9 11 10 10 9 5 8 9 11 14 18 12 4 4 4 3 4 4 7 8 11 13 16 13 14 15
10 9 8 11 8 6 5 4 4 10 6 2 3 4 4 3 4 4 7 12 8 10 6 10 8 12 14 16 8 4 2 2 2 2 1 5 7 10 14 12 15 15 13
10 7 9 7 8 11 8 9 7 6 7 8 11 7 10 8 7 8 8 7 7 9 8 7 10 11 11 13 10 4 4 2 1 2 1 2 5 11 13 15 15 15 10
Wind_Direction
224 230 228 240 239 228 228 224 225 234 237 251 255 274 256 244 250 257 262 255 254 267 267 273 266 268 266 261 257 259 258 246 248 234 228 223 226 233 258 228 227 229 218
225 231 230 231 234 225 228 235 234 230 242 247 257 259 257 245 248 255 267 274 271 277 283 279 281 273 271 269 262 255 258 251 243 241 232 222 227 242 248 234 219 214 217
221 225 231 236 245 252 246 238 245 251 238 238 246 252 256 254 249 247 249 253 258 267 272 276 281 282 278 278 276 268 264 258 253 247 245 241 243 233 232 224 228 223 211
219 224 228 238 259 262 266 263 263 266 267 264 258 256 253 252 246 246 254 265 279 277 270 275 273 276 277 277 274 275 269 268 268 263 260 253 248 243 237 229 224 230 210
177 194 216 230 245 247 247 254 263 262 264 268 268 263 257 251 275 263 267 271 283 327 262 270 270 272 266 274 280 276 268 265 269 303 274 260 246 236 231 242 231 222 218
190 216 232 220 227 232 239 245 247 250 254 257 257 267 277 277 288 256 258 283 268 286 270 269 262 267 258 279 283 285 277 275 248 272 258 261 257 254 268 246 231 217 209
187 197 230 247 247 256 259 263 261 263 271 270 269 275 281 288 285 280 290 291 291 277 277 276 277 274 277 279 280 280 279 280 275 280 265 240 288 260 250 240 243 224 218
93 302 272 267 264 268 281 284 287 288 293 305 305 309 304 307 303 298 297 302 299 299 292 281 272 272 277 282 287 289 293 281 273 274 257 264 284 243 243 245 247 220 215
112 136 137 200 345 12 17 353 339 330 337 350 354 345 336 332 329 326 325 316 310 303 296 291 282 294 292 288 303 307 303 287 284 278 262 267 257 241 253 220 211 209 212
199 218 93 76 74 44 1 358 10 9 360 0 18 7 352 344 341 325 320 312 304 311 308 290 280 297 299 298 309 315 318 305 294 286 285 271 266 237 236 213 215 214 220
83 77 72 90 56 37 26 29 34 27 29 22 19 9 13 1 352 344 329 317 307 309 314 289 267 284 284 300 310 310 319 324 338 318 287 270 259 231 222 198 193 207 200
93 81 88 86 40 32 58 54 32 27 28 30 27 23 358 354 353 348 349 346 350 339 319 294 280 286 298 304 302 303 309 325 327 318 283 266 262 252 213 176 182 188 194
88 78 70 54 80 77 51 43 22 13 29 14 354 10 360 353 354 1 6 8 8 11 18 331 309 300 320 15 20 11 354 360 352 341 323 175 282 198 154 155 168 173 181
49 73 83 70 58 48 41 26 20 17 20 8 5 353 348 3 12 28 35 45 46 50 52 55 50 51 51 45 42 37 36 25 26 303 199 26 134 134 140 152 158 137 161
275 94 83 344 353 34 14 6 359 345 340 348 1 357 357 16 16 41 51 49 42 35 32 27 34 33 12 31 25 36 34 35 50 138 171 160 148 152 159 157 165 162 176
205 313 287 302 309 307 344 349 339 339 342 320 353 7 13 27 27 53 22 30 25 23 23 23 15 10 4 358 14 17 31 40 58 96 136 153 159 163 161 159 168 175 180
200 206 258 242 272 301 319 321 322 329 339 346 3 18 14 20 13 25 17 19 36 33 22 3 350 354 359 348 347 348 346 354 45 138 179 168 170 174 192 184 177 187 200
231 227 244 292 237 293 318 327 326 344 17 14 14 12 19 230 336 360 15 24 34 16 13 13 13 347 337 334 332 330 316 319 276 239 236 211 197 214 198 190 192 179 189
237 206 232 209 292 256 305 319 344 8 5 354 350 348 12 357 343 21 11 13 35 8 357 360 9 17 14 3 354 342 321 302 283 243 245 215 205 210 198 200 197 209 189
147 127 15 238 232 266 333 340 189 344 3 337 336 327 337 357 308 331 358 351 19 344 351 7 4 15 17 6 354 346 339 316 261 253 231 206 213 199 201 193 195 199 180
323 210 307 23 228 257 329 355 337 331 333 327 308 327 298 321 331 306 304 324 250 305 355 352 7 7 358 341 341 355 354 0 221 226 207 206 208 200 195 206 196 179 187
205 236 269 269 226 242 272 293 272 286 339 337 305 306 305 3 19 6 315 288 268 304 343 348 360 14 9 3 331 328 329 331 319 193 209 208 219 213 215 202 179 187 204
217 202 266 304 248 239 302 253 290 300 290 331 299 283 270 295 339 302 293 267 304 304 300 328 335 359 357 3 352 304 329 328 328 320 213 203 207 205 205 192 182 188 173
221 216 293 278 280 302 302 247 329 284 293 306 313 297 315 358 342 330 348 312 327 302 298 317 331 349 353 356 352 264 280 308 262 349 200 203 203 197 192 182 188 179 174
205 205 291 253 264 291 270 300 302 321 320 336 27 33 36 12 16 327 334 331 347 344 304 326 310 338 347 346 3 335 280 283 168 13 149 166 180 180 176 182 171 170 170
202 279 270 236 259 253 268 251 274 308 310 312 310 309 314 319 299 296 309 307 326 336 334 348 346 343 330 342 348 318 303 293 227 311 205 142 164 172 171 168 170 170 174